Back to catalog

COSMOS 1752

AliveMilitaryLEO
NORAD 16762·PAYLOAD·🇷🇺 Russia

Launched Jun 6, 1986 from Plesetsk Cosmodrome

Loading…

Next Passes (next 24 hours)

TLE

FreshSource: Space-Track

Epoch: Sep 14, 2026, 13:54 UTC

1 16762U 86042E   26257.57926197 -.00000003  00000-0  88262-4 0  9994
2 16762  74.0191 311.8063 0012257 245.4589 186.3557 12.47018322833461

Track COSMOS 1752 in real time with AllMySat

Download on the App Store